Dewpoint
39 41 41 40 40 40 40 41 42 42 41 41 41 42 40 37 36 33 33 30 31 33
41 41 40 40 40 40 40 40 42 42 41 40 40 41 41 41 38 36 36 33 33 32
40 41 40 41 39 39 40 41 41 41 40 40 40 41 40 41 40 38 38 37 37 35
38 40 39 40 39 40 42 42 41 40 39 39 39 39 40 41 40 39 38 39 38 38
37 39 39 39 39 40 40 42 41 41 39 39 39 40 40 39 39 39 38 37 38 38
36 38 38 39 39 39 39 40 42 41 40 39 40 39 40 39 38 38 38 38 38 38
35 36 39 37 38 39 39 39 41 41 41 41 40 40 40 40 40 38 38 38 38 37
34 34 36 37 36 36 37 39 41 40 39 41 41 39 40 40 38 39 38 39 37 38
33 33 33 35 33 33 34 36 39 39 40 39 40 45 41 42 40 40 38 38 38 38
32 32 32 32 32 31 32 33 35 38 39 39 39 43 45 43 42 41 40 40 40 39
32 32 32 32 31 31 31 31 33 36 37 39 41 43 43 42 39 40 39 40 40 39
32 32 31 31 31 30 30 30 30 32 36 36 38 42 43 40 37 37 37 37 37 37
32 32 32 31 31 31 30 30 29 29 30 38 36 37 39 38 37 37 37 39 38 41
32 32 33 32 31 31 31 30 30 29 29 30 34 35 36 36 33 35 36 35 36 37
Lifted_Index
10 11 11 11 10 10 10 10 9 9 9 8 8 6 6 6 6 6 6 6 5 5
10 10 11 10 10 10 10 10 10 9 9 9 8 7 6 6 5 5 5 5 5 5
10 10 10 10 9 9 10 10 10 10 10 9 8 7 6 5 5 5 5 5 5 5
10 10 10 10 10 9 9 10 10 10 10 9 8 7 6 5 5 5 5 5 4 4
11 11 11 11 10 9 9 9 9 9 9 9 8 7 6 5 5 4 4 4 4 4
12 12 12 12 11 10 9 9 9 9 9 8 8 8 7 6 5 4 4 4 4 4
12 13 13 12 11 10 9 9 9 8 8 7 7 7 7 6 5 4 4 4 4 4
12 13 13 12 12 11 10 10 9 8 7 7 6 6 6 6 5 4 4 4 4 4
12 12 12 12 12 11 11 10 9 9 8 7 6 5 5 5 4 4 4 4 4 4
12 12 12 12 12 11 11 10 9 8 8 7 6 5 4 4 4 4 4 4 4 4
13 13 12 12 12 11 10 10 9 8 8 7 7 6 5 5 4 5 5 5 5 5
14 14 13 13 12 11 10 10 9 8 8 7 7 7 7 6 6 6 6 6 6 6
14 14 13 13 12 12 11 10 9 9 8 8 7 7 8 8 8 8 8 8 8 8
14 14 13 13 12 12 11 10 10 9 9 8 8 8 8 9 9 9 9 9 9 9